| time (UTC) | temp C | wind direction | speed KPH | gust KPH | rain 1hr cm | rain 24hr cm | rain mn cm | humidity % | barometer mb |
| 20260504204318 | 23 | 205 | 11.3 | 20.9 | 0.00 | 0.00 | 0.00 | 43 | 1011.9 |
| 20260504203418 | 23 | 231 | 11.3 | 22.5 | 0.00 | 0.00 | 0.00 | 43 | 1011.9 |
| 20260504202518 | 23 | 254 | 9.7 | 22.5 | 0.00 | 0.00 | 0.00 | 41 | 1012.0 |
| 20260504200718 | 23 | 239 | 11.3 | 24.1 | 0.00 | 0.00 | 0.00 | 41 | 1012.2 |
| 20260504195818 | 22 | 234 | 16.1 | 32.2 | 0.00 | 0.00 | 0.00 | 40 | 1012.3 |
| 20260504194918 | 22 | 232 | 11.3 | 32.2 | 0.00 | 0.00 | 0.00 | 41 | 1012.4 |
| 20260504194018 | 23 | 242 | 9.7 | 24.1 | 0.00 | 0.00 | 0.00 | 41 | 1012.5 |
| 20260504193118 | 22 | 242 | 11.3 | 25.7 | 0.00 | 0.00 | 0.00 | 40 | 1012.8 |
| 20260504191318 | 22 | 248 | 8.0 | 24.1 | 0.00 | 0.00 | 0.00 | 39 | 1013.0 |
| 20260504190418 | 22 | 249 | 8.0 | 19.3 | 0.00 | 0.00 | 0.00 | 38 | 1013.1 |
| 20260504184618 | 22 | 239 | 9.7 | 22.5 | 0.00 | 0.00 | 0.00 | 40 | 1013.3 |
| 20260504183718 | 22 | 240 | 8.0 | 19.3 | 0.00 | 0.00 | 0.00 | 41 | 1013.4 |
| 20260504181918 | 21 | 225 | 9.7 | 22.5 | 0.00 | 0.00 | 0.00 | 42 | 1013.6 |
| 20260504181018 | 21 | 207 | 9.7 | 22.5 | 0.00 | 0.00 | 0.00 | 41 | 1013.8 |
| 20260504180118 | 21 | 224 | 11.3 | 19.3 | 0.00 | 0.00 | 0.00 | 40 | 1013.9 |
| 20260504175218 | 21 | 240 | 8.0 | 19.3 | 0.00 | 0.00 | 0.00 | 42 | 1014.1 |
| 20260504174318 | 21 | 224 | 6.4 | 19.3 | 0.00 | 0.00 | 0.00 | 41 | 1014.2 |
| 20260504173418 | 21 | 219 | 9.7 | 24.1 | 0.00 | 0.00 | 0.00 | 42 | 1014.2 |
| 20260504172518 | 21 | 233 | 8.0 | 20.9 | 0.00 | 0.00 | 0.00 | 43 | 1014.2 |
| 20260504171618 | 21 | 241 | 4.8 | 16.1 | 0.00 | 0.00 | 0.00 | 42 | 1014.3 |
| 20260504170718 | 21 | 256 | 6.4 | 14.5 | 0.00 | 0.00 | 0.00 | 41 | 1014.4 |
| 20260504160418 | 19 | 119 | 3.2 | 8.0 | 0.00 | 0.00 | 0.00 | 53 | 1015.1 |
| 20260504151018 | 18 | 273 | 3.2 | 9.7 | 0.00 | 0.00 | 0.00 | 52 | 1015.7 |
| 20260504150118 | 17 | 288 | 3.2 | 11.3 | 0.00 | 0.00 | 0.00 | 52 | 1015.6 |
| 20260504140718 | 16 | 284 | 4.8 | 12.9 | 0.00 | 0.00 | 0.00 | 57 | 1015.8 |
| 20260504120118 | 13 | 259 | 6.4 | 24.1 | 0.00 | 0.00 | 0.00 | 68 | 1016.8 |
| 20260504110718 | 12 | 265 | 4.8 | 12.9 | 0.00 | 0.00 | 0.00 | 71 | 1017.0 |
| 20260504100418 | 13 | 268 | 3.2 | 8.0 | 0.00 | 0.00 | 0.00 | 71 | 1017.2 |
| 20260504090118 | 13 | 249 | 11.3 | 29.0 | 0.00 | 0.00 | 0.00 | 71 | 1016.9 |
| 20260504081618 | 13 | 251 | 11.3 | 27.4 | 0.00 | 0.00 | 0.00 | 72 | 1017.0 |
| 20260504060117 | 13 | 249 | 11.3 | 22.5 | 0.00 | 0.00 | 0.00 | 74 | 1017.2 |
| 20260504050717 | 12 | 250 | 4.8 | 9.7 | 0.00 | 0.00 | 0.00 | 70 | 1017.1 |
| 20260504045817 | 12 | 260 | 4.8 | 9.7 | 0.00 | 0.00 | 0.00 | 69 | 1017.1 |
| 20260504044017 | 12 | 261 | 4.8 | 9.7 | 0.00 | 0.00 | 0.00 | 66 | 1017.2 |
| 20260504043117 | 12 | 269 | 3.2 | 8.0 | 0.00 | 0.00 | 0.00 | 67 | 1017.3 |
| 20260504042217 | 12 | 265 | 3.2 | 8.0 | 0.00 | 0.00 | 0.00 | 68 | 1017.1 |
| 20260504041317 | 12 | 266 | 3.2 | 11.3 | 0.00 | 0.00 | 0.00 | 70 | 1017.1 |
| 20260504040417 | 12 | 266 | 3.2 | 8.0 | 0.00 | 0.00 | 0.00 | 70 | 1017.0 |
| 20260504035517 | 12 | 263 | 3.2 | 9.7 | 0.00 | 0.00 | 0.00 | 69 | 1016.9 |
| 20260504034617 | 12 | 272 | 3.2 | 8.0 | 0.00 | 0.00 | 0.00 | 68 | 1016.8 |
| 20260504033717 | 12 | 266 | 3.2 | 8.0 | 0.00 | 0.00 | 0.00 | 69 | 1016.8 |
| 20260504030117 | 12 | 259 | 3.2 | 8.0 | 0.00 | 0.00 | 0.00 | 70 | 1016.4 |
| 20260504025217 | 12 | 254 | 3.2 | 9.7 | 0.00 | 0.00 | 0.00 | 69 | 1016.5 |
| 20260504024317 | 12 | 259 | 3.2 | 9.7 | 0.00 | 0.00 | 0.00 | 68 | 1016.4 |
| 20260504022517 | 12 | 264 | 3.2 | 8.0 | 0.00 | 0.00 | 0.00 | 68 | 1016.4 |
| 20260504021617 | 12 | 260 | 3.2 | 8.0 | 0.00 | 0.00 | 0.00 | 67 | 1016.3 |
| 20260504020717 | 12 | 261 | 4.8 | 8.0 | 0.00 | 0.00 | 0.00 | 68 | 1016.4 |
| 20260504015817 | 12 | 261 | 3.2 | 6.4 | 0.00 | 0.00 | 0.00 | 65 | 1016.4 |
| 20260504014916 | 12 | 257 | 3.2 | 4.8 | 0.00 | 0.00 | 0.00 | 66 | 1016.3 |
| 20260504014017 | 12 | 258 | 3.2 | 4.8 | 0.00 | 0.00 | 0.00 | 69 | 1016.3 |
| 20260504013117 | 12 | 258 | 1.6 | 3.2 | 0.00 | 0.00 | 0.00 | 69 | 1016.2 |
| 20260504012217 | 12 | 258 | 1.6 | 3.2 | 0.00 | 0.00 | 0.00 | 69 | 1016.1 |
| 20260504011317 | 12 | 258 | 3.2 | 6.4 | 0.00 | 0.00 | 0.00 | 67 | 1016.0 |
| 20260504010417 | 12 | 287 | 0.0 | 3.2 | 0.00 | 0.00 | 0.00 | 72 | 1016.0 |
| 20260504005517 | 13 | 289 | 0.0 | 1.6 | 0.00 | 0.00 | 0.00 | 67 | 1016.0 |
| 20260504004616 | 13 | 289 | 0.0 | 1.6 | 0.00 | 0.00 | 0.00 | 65 | 1016.0 |
| 20260504003716 | 13 | 289 | 0.0 | 1.6 | 0.00 | 0.00 | 0.00 | 61 | 1015.9 |
| 20260504002816 | 14 | 291 | 0.0 | 4.8 | 0.00 | 0.00 | 0.00 | 56 | 1015.8 |
| 20260504001916 | 15 | 298 | 1.6 | 6.4 | 0.00 | 0.00 | 0.00 | 52 | 1015.7 |
| 20260504001016 | 15 | 294 | 1.6 | 6.4 | 0.00 | 0.00 | 0.00 | 50 | 1015.7 |
| 20260504000117 | 15 | 293 | 1.6 | 6.4 | 0.00 | 0.00 | 0.00 | 51 | 1015.6 |
| 20260503234316 | 15 | 302 | 1.6 | 9.7 | 0.00 | 0.00 | 0.00 | 51 | 1015.3 |
| 20260503233416 | 15 | 297 | 1.6 | 8.0 | 0.00 | 0.00 | 0.00 | 47 | 1015.3 |
| 20260503232516 | 15 | 296 | 1.6 | 9.7 | 0.00 | 0.00 | 0.00 | 46 | 1015.4 |
| 20260503231616 | 15 | 291 | 1.6 | 11.3 | 0.00 | 0.00 | 0.00 | 43 | 1015.3 |
| 20260503230716 | 16 | 296 | 1.6 | 6.4 | 0.00 | 0.00 | 0.00 | 45 | 1015.4 |
| 20260503225816 | 16 | 300 | 1.6 | 6.4 | 0.00 | 0.00 | 0.00 | 45 | 1015.4 |
| 20260503224916 | 16 | 294 | 3.2 | 9.7 | 0.00 | 0.00 | 0.00 | 44 | 1015.4 |
| 20260503224016 | 16 | 290 | 4.8 | 14.5 | 0.00 | 0.00 | 0.00 | 41 | 1015.5 |
| 20260503222216 | 17 | 293 | 3.2 | 9.7 | 0.00 | 0.00 | 0.00 | 43 | 1015.4 |
| 20260503221317 | 16 | 289 | 4.8 | 17.7 | 0.00 | 0.00 | 0.00 | 42 | 1015.4 |
| 20260503220416 | 16 | 291 | 3.2 | 11.3 | 0.00 | 0.00 | 0.00 | 40 | 1015.4 |
| 20260503215516 | 17 | 298 | 3.2 | 6.4 | 0.00 | 0.00 | 0.00 | 41 | 1015.4 |
| 20260503214616 | 16 | 291 | 4.8 | 9.7 | 0.00 | 0.00 | 0.00 | 42 | 1015.4 |
| 20260503213716 | 16 | 293 | 4.8 | 12.9 | 0.00 | 0.00 | 0.00 | 43 | 1015.4 |
| 20260503212816 | 16 | 295 | 3.2 | 11.3 | 0.00 | 0.00 | 0.00 | 41 | 1015.4 |
| 20260503211916 | 16 | 294 | 4.8 | 11.3 | 0.00 | 0.00 | 0.00 | 43 | 1015.4 |
| 20260503211016 | 16 | 298 | 4.8 | 11.3 | 0.00 | 0.00 | 0.00 | 43 | 1015.4 |
| 20260503210116 | 16 | 301 | 4.8 | 14.5 | 0.00 | 0.00 | 0.00 | 45 | 1015.4 |
| 20260503205216 | 16 | 296 | 4.8 | 12.9 | 0.00 | 0.00 | 0.00 | 41 | 1015.4 |